Temp
38 39 39 39 38 38 37 37 37 39 39 40 42 43 44 44 42 41 41 41 40 40 41 42 43 44 42 41 41 41 39 39 33 35 37 37 34 35 35 37 37 34 32
38 37 37 37 36 35 33 33 35 33 34 36 39 41 43 44 43 41 40 40 39 39 40 41 41 43 41 42 40 39 38 38 34 33 32 32 33 33 34 31 32 33 27
38 36 34 33 31 28 28 31 31 30 32 34 35 35 36 37 38 41 41 40 40 40 40 40 41 41 40 40 38 37 37 39 34 33 32 33 32 33 32 29 29 28 32
37 35 32 31 30 27 24 23 23 26 27 30 33 33 33 33 35 35 38 39 38 38 39 40 41 41 40 40 39 36 37 33 33 32 33 32 32 32 32 30 30 32 33
33 31 26 26 24 21 19 19 21 21 24 24 31 33 33 35 39 37 37 36 36 35 36 39 40 39 39 41 40 37 35 30 30 33 32 31 31 30 31 32 31 31 30
27 27 24 23 22 18 16 16 17 18 20 21 23 27 31 35 37 38 38 36 35 34 34 35 37 36 38 40 41 41 38 33 32 32 32 32 32 32 33 33 32 30 28
23 24 20 20 20 19 18 16 16 18 20 19 21 24 25 30 37 38 37 35 35 34 33 34 34 36 35 36 39 40 39 41 39 34 33 33 32 33 34 33 33 32 30
16 19 20 17 20 18 17 17 18 20 19 21 21 22 23 28 36 37 37 33 33 34 32 33 34 34 35 35 34 34 34 34 35 34 34 33 33 32 35 34 34 31 29
16 16 16 16 20 14 17 16 18 21 23 22 24 22 23 23 35 37 37 33 33 33 33 31 34 34 36 38 34 33 32 31 38 38 38 38 38 38 36 34 30 30 29
17 19 18 18 19 17 19 18 18 20 24 27 27 24 23 24 33 35 36 34 33 32 33 33 32 34 37 38 34 32 31 30 30 28 29 34 35 35 34 28 27 24 29
19 20 20 20 21 22 21 22 21 20 23 19 24 24 23 24 25 35 37 32 32 32 32 32 32 36 37 39 37 33 33 31 32 29 28 28 28 26 23 23 22 26 33
20 20 19 20 24 26 24 24 24 24 24 21 21 24 26 27 29 35 37 37 36 32 32 32 33 36 38 39 36 37 37 32 30 29 27 26 26 26 25 25 24 21 26
16 15 16 19 23 26 25 25 25 26 25 25 26 24 25 27 27 37 37 37 35 32 32 34 36 37 37 38 38 37 34 32 30 28 27 25 25 26 26 25 23 19 19
12 13 16 18 20 23 27 28 27 25 25 26 26 25 24 24 26 27 28 28 32 34 33 33 35 35 35 35 34 36 32 32 30 29 27 25 23 24 25 25 23 19 17
11 12 14 16 17 20 24 26 27 29 30 25 26 26 22 21 26 31 29 25 23 29 32 32 31 30 30 31 32 32 31 31 30 29 27 25 23 24 24 26 26 25 18
8 10 12 13 15 18 20 23 31 33 34 35 35 31 27 32 35 35 35 35 35 35 21 31 30 30 31 31 31 31 30 30 30 30 27 24 23 24 24 26 27 26 16
5 6 8 10 11 13 15 17 20 28 33 35 35 35 35 32 33 34 34 35 35 32 17 21 31 31 31 32 32 31 30 31 31 30 27 24 23 25 25 25 26 26 17
3 5 6 7 8 9 11 14 17 21 22 21 29 33 33 34 34 34 34 32 16 19 17 21 25 32 32 32 32 32 31 30 30 29 27 25 24 24 24 25 26 25 19
2 4 5 7 8 9 11 12 14 15 18 20 12 24 24 33 33 33 33 20 18 15 19 23 29 27 33 33 33 33 32 30 30 29 28 26 25 24 24 25 27 24 22
3 4 5 4 4 4 7 9 10 12 13 16 17 18 10 11 15 20 22 17 20 23 20 24 27 30 30 33 33 33 31 30 30 29 28 27 26 26 26 25 26 23 23
4 4 4 4 4 4 5 5 8 10 11 13 14 16 23 17 19 16 20 21 23 24 23 26 28 31 32 33 33 33 32 31 30 30 29 27 27 26 27 27 26 25 25
5 4 4 3 4 4 4 6 7 7 9 10 12 13 23 21 20 19 18 19 20 22 22 26 30 33 34 34 33 33 33 31 30 30 29 27 27 27 27 27 25 25 22
6 5 4 4 4 5 4 5 5 6 7 8 10 11 11 14 17 18 19 20 17 22 25 27 30 33 35 34 34 34 33 32 32 31 29 27 27 27 28 26 25 24 22
7 7 7 7 6 5 5 4 5 5 6 7 9 10 12 13 15 16 18 20 21 23 25 27 32 33 34 34 34 34 34 34 33 32 31 29 28 28 27 26 26 24 22
6 6 7 7 7 6 7 6 5 6 6 7 7 8 11 13 14 16 17 19 21 22 24 27 31 34 34 34 34 34 34 33 33 32 31 30 29 28 27 26 25 24 23
6 5 5 6 6 6 7 8 8 8 7 8 9 10 11 11 13 16 18 19 19 20 21 26 31 34 34 34 34 34 33 32 32 32 31 30 28 28 27 26 25 24 23
MSLP
1024.33 1024.25 1024.17 1024.09 1023.86 1023.60 1023.27 1023.05 1022.86 1022.69 1022.54 1022.08 1021.60 1021.24 1021.11 1021.20 1021.30 1021.67 1021.92 1021.98 1022.36 1022.64 1022.93 1022.77 1022.75 1022.84 1022.77 1022.97 1023.37 1023.74 1023.89 1023.78 1024.44 1025.35 1025.64 1026.08 1026.64 1027.11 1027.36 1027.45 1027.43 1027.83 1027.85
1024.43 1024.47 1024.62 1024.60 1024.55 1024.44 1024.29 1023.88 1023.44 1023.10 1022.90 1022.40 1021.87 1021.51 1021.40 1021.32 1021.33 1021.49 1021.80 1022.05 1022.21 1022.37 1022.59 1022.67 1022.82 1022.83 1022.93 1023.14 1023.34 1023.80 1024.05 1023.83 1024.23 1025.01 1025.96 1026.27 1026.68 1027.22 1027.52 1027.99 1028.02 1027.83 1028.09
1024.59 1024.69 1024.82 1024.93 1024.97 1025.11 1025.07 1024.88 1024.35 1023.93 1023.58 1022.99 1022.55 1022.27 1022.02 1021.83 1021.53 1021.41 1021.56 1021.75 1022.02 1022.09 1022.45 1022.51 1022.61 1022.77 1023.09 1023.39 1023.38 1023.63 1023.95 1024.03 1024.24 1024.70 1025.52 1025.95 1026.69 1027.23 1027.81 1028.15 1028.32 1028.18 1028.14
1024.77 1024.86 1025.08 1025.22 1025.24 1025.24 1025.20 1025.10 1024.94 1024.57 1024.22 1023.71 1023.28 1022.91 1022.46 1022.05 1021.86 1021.73 1021.70 1021.64 1021.77 1022.05 1022.33 1022.32 1022.52 1022.65 1023.02 1023.21 1023.41 1023.48 1023.76 1024.15 1024.43 1024.76 1025.19 1025.77 1026.33 1027.05 1027.52 1027.69 1028.11 1027.84 1027.93
1025.18 1025.15 1025.30 1025.26 1025.40 1025.45 1025.43 1025.32 1025.16 1024.98 1024.64 1024.29 1024.00 1023.55 1023.00 1022.47 1021.99 1021.82 1021.73 1021.65 1021.71 1021.84 1021.94 1022.22 1022.52 1022.64 1022.84 1022.81 1023.22 1023.51 1023.74 1024.03 1024.38 1024.54 1025.07 1025.50 1026.02 1026.56 1026.91 1027.19 1027.51 1027.72 1028.07
1025.73 1025.60 1025.30 1025.34 1025.49 1025.49 1025.44 1025.34 1025.14 1024.87 1024.64 1024.36 1023.97 1023.68 1023.32 1022.95 1022.48 1022.19 1022.04 1021.95 1021.90 1022.01 1022.20 1022.26 1022.46 1022.80 1022.75 1022.92 1023.02 1023.09 1023.49 1023.74 1024.02 1024.15 1024.80 1025.05 1025.46 1025.99 1026.49 1026.80 1027.10 1027.45 1027.93
1026.26 1025.56 1025.46 1025.33 1025.35 1025.32 1025.27 1025.23 1025.07 1024.79 1024.52 1024.20 1023.79 1023.53 1023.31 1022.99 1022.62 1022.32 1022.10 1022.03 1022.02 1022.10 1022.26 1022.35 1022.44 1022.59 1022.74 1022.92 1023.05 1023.04 1023.23 1023.36 1023.56 1023.70 1024.31 1024.74 1024.99 1025.32 1026.03 1026.46 1026.80 1027.18 1027.13
1026.36 1026.09 1025.67 1025.55 1025.56 1025.47 1025.29 1025.04 1024.83 1024.56 1024.32 1024.07 1023.73 1023.41 1023.15 1022.80 1022.42 1022.10 1021.90 1021.89 1021.87 1021.89 1022.07 1022.15 1022.25 1022.22 1022.30 1022.67 1022.87 1023.14 1023.37 1023.59 1023.87 1023.94 1024.15 1024.47 1024.71 1025.00 1025.41 1025.94 1026.58 1027.22 1027.44
1026.46 1026.18 1025.89 1025.50 1025.30 1025.24 1025.47 1025.11 1024.61 1024.33 1024.05 1023.87 1023.69 1023.39 1023.08 1022.64 1022.20 1021.84 1021.85 1021.81 1021.74 1021.71 1021.86 1021.99 1021.97 1021.89 1021.85 1022.06 1022.59 1022.93 1023.42 1023.74 1023.90 1024.14 1024.16 1024.34 1024.37 1024.73 1025.24 1025.97 1026.65 1027.12 1027.56
1026.51 1026.10 1025.67 1025.28 1025.04 1024.96 1024.57 1024.59 1024.27 1024.11 1023.87 1023.65 1023.47 1023.31 1023.01 1022.57 1022.23 1021.92 1021.70 1021.68 1021.74 1021.71 1021.67 1021.74 1021.71 1021.69 1021.58 1021.75 1022.28 1022.65 1023.30 1023.83 1024.36 1024.70 1024.94 1024.84 1024.99 1025.21 1025.69 1026.17 1026.47 1026.98 1027.05
1026.39 1025.95 1025.57 1025.19 1024.72 1024.31 1024.05 1023.92 1023.81 1023.84 1023.72 1023.53 1023.32 1022.99 1022.81 1022.45 1022.07 1021.88 1021.63 1021.43 1021.67 1021.63 1021.56 1021.57 1021.40 1021.40 1021.36 1021.59 1021.91 1022.39 1022.75 1023.52 1024.52 1024.88 1025.40 1025.70 1025.91 1026.06 1026.63 1026.76 1026.82 1026.79 1027.01
1026.54 1026.21 1025.79 1025.23 1024.58 1024.03 1023.65 1023.39 1023.31 1023.39 1023.55 1023.53 1023.25 1022.77 1022.39 1022.18 1021.99 1021.73 1021.53 1021.45 1021.38 1021.48 1021.39 1021.23 1021.14 1021.14 1021.18 1021.38 1021.73 1022.05 1022.57 1023.44 1024.38 1025.02 1025.55 1026.10 1026.10 1026.45 1026.77 1026.97 1027.18 1027.44 1027.27
1026.97 1026.54 1025.91 1025.12 1024.49 1023.78 1023.26 1022.99 1022.81 1022.77 1022.86 1022.82 1022.74 1022.48 1022.18 1021.82 1021.74 1021.59 1021.38 1021.33 1021.36 1021.29 1021.31 1021.08 1020.90 1020.92 1021.01 1021.19 1021.51 1021.87 1022.65 1023.28 1024.02 1024.93 1025.41 1026.08 1026.37 1026.41 1026.66 1027.18 1027.79 1027.97 1028.05
1027.19 1026.58 1025.80 1024.95 1024.17 1023.53 1022.85 1022.34 1022.15 1021.91 1021.91 1021.99 1021.99 1021.87 1021.68 1021.75 1021.40 1021.32 1021.25 1021.14 1021.15 1021.18 1021.15 1021.01 1020.82 1020.84 1020.95 1021.10 1021.37 1021.80 1022.43 1023.01 1023.65 1024.36 1025.30 1025.85 1026.64 1026.81 1026.84 1026.97 1027.81 1028.06 1028.37
1027.13 1026.44 1025.64 1024.89 1024.04 1023.12 1022.34 1021.72 1021.27 1020.79 1020.73 1020.74 1020.73 1020.83 1020.99 1021.11 1021.01 1020.91 1021.00 1021.11 1021.01 1020.98 1020.94 1020.97 1021.02 1021.00 1021.03 1021.19 1021.45 1021.67 1022.38 1022.98 1023.55 1024.09 1024.99 1025.68 1026.43 1026.70 1026.87 1026.97 1027.43 1027.69 1028.28
1026.75 1026.22 1025.61 1024.87 1024.03 1023.30 1022.39 1021.27 1020.51 1019.96 1019.82 1019.69 1019.63 1019.67 1019.81 1019.95 1020.28 1020.49 1020.60 1020.64 1020.71 1020.74 1020.88 1020.88 1021.01 1021.00 1020.96 1021.13 1021.32 1021.58 1022.03 1022.64 1023.16 1023.79 1024.54 1025.41 1026.05 1026.28 1026.73 1027.09 1027.06 1027.43 1027.95
1026.50 1025.96 1025.51 1024.93 1024.16 1023.33 1022.48 1021.67 1020.50 1019.57 1019.15 1018.84 1018.93 1019.08 1019.20 1019.51 1019.72 1019.88 1020.14 1020.26 1020.33 1020.44 1020.69 1020.71 1020.63 1020.74 1020.67 1020.70 1020.88 1021.13 1021.57 1022.09 1022.71 1023.20 1023.96 1024.88 1025.68 1026.07 1026.43 1026.90 1026.80 1027.23 1027.86
1026.13 1025.58 1025.10 1024.52 1023.98 1023.29 1022.58 1021.78 1021.02 1020.07 1019.32 1018.86 1018.35 1018.35 1018.56 1018.79 1019.07 1019.26 1019.51 1019.77 1020.37 1020.10 1020.53 1020.31 1020.15 1020.02 1020.12 1020.19 1020.28 1020.55 1021.01 1021.61 1022.15 1022.63 1023.46 1024.30 1025.17 1025.58 1026.07 1026.19 1026.63 1027.07 1027.58
1025.62 1025.02 1024.51 1023.91 1023.36 1022.82 1022.30 1021.60 1020.90 1020.26 1019.61 1019.02 1018.81 1018.27 1018.06 1018.20 1018.53 1018.73 1018.91 1019.22 1019.70 1019.76 1019.83 1019.60 1019.44 1019.33 1019.19 1019.50 1019.65 1019.85 1020.25 1020.81 1021.39 1021.93 1022.65 1023.58 1024.29 1024.96 1025.51 1025.81 1026.16 1026.79 1027.32
1024.67 1024.24 1023.83 1023.43 1023.04 1022.60 1022.06 1021.35 1020.70 1020.13 1019.62 1019.06 1018.63 1018.39 1018.30 1018.47 1018.39 1018.34 1018.39 1018.61 1018.92 1018.83 1018.91 1018.73 1018.43 1018.41 1018.44 1018.51 1018.96 1019.19 1019.61 1020.13 1020.67 1021.24 1021.85 1022.65 1023.45 1024.15 1024.78 1025.40 1025.74 1026.36 1027.03
1023.52 1023.17 1022.90 1022.59 1022.18 1021.79 1021.35 1020.97 1020.49 1019.84 1019.20 1018.72 1018.26 1018.06 1018.01 1018.04 1017.74 1017.72 1017.86 1017.76 1017.71 1017.66 1017.66 1017.63 1017.46 1017.48 1017.59 1017.71 1018.02 1018.37 1018.79 1019.25 1019.78 1020.35 1021.04 1021.79 1022.63 1023.34 1024.05 1024.77 1025.38 1025.98 1026.67
1022.40 1022.08 1021.88 1021.58 1021.25 1020.93 1020.58 1020.26 1019.90 1019.45 1018.95 1018.47 1018.02 1017.86 1017.57 1017.15 1016.94 1016.88 1016.95 1016.85 1016.74 1016.72 1016.76 1016.73 1016.56 1016.44 1016.52 1016.69 1016.89 1017.38 1017.83 1018.32 1018.93 1019.57 1020.23 1021.04 1021.84 1022.65 1023.39 1024.20 1025.06 1025.68 1026.53
1021.19 1020.86 1020.58 1020.30 1020.10 1019.82 1019.57 1019.37 1019.11 1018.81 1018.40 1017.99 1017.66 1017.36 1017.28 1016.73 1016.38 1016.15 1016.03 1015.99 1016.04 1016.05 1015.84 1015.74 1015.68 1015.51 1015.46 1015.68 1015.94 1016.21 1016.80 1017.29 1017.85 1018.60 1019.38 1020.27 1021.08 1021.85 1022.62 1023.57 1024.40 1025.33 1026.15
1020.47 1019.89 1019.36 1018.97 1018.75 1018.54 1018.32 1018.14 1018.01 1017.85 1017.62 1017.29 1016.99 1016.65 1016.33 1016.02 1015.71 1015.45 1015.32 1015.27 1015.24 1015.14 1014.92 1014.71 1014.50 1014.40 1014.45 1014.65 1014.95 1015.30 1015.80 1016.39 1017.00 1017.66 1018.41 1019.33 1020.23 1021.04 1021.97 1022.92 1023.74 1024.76 1025.67
1020.21 1019.55 1018.90 1018.25 1017.68 1017.30 1016.98 1016.82 1016.74 1016.64 1016.51 1016.33 1016.04 1015.80 1015.48 1015.17 1014.86 1014.62 1014.55 1014.45 1014.32 1014.16 1013.86 1013.62 1013.50 1013.30 1013.47 1013.63 1013.96 1014.37 1014.87 1015.58 1016.23 1016.88 1017.73 1018.53 1019.39 1020.24 1021.21 1022.07 1023.13 1024.35 1025.26
1020.16 1019.46 1018.78 1018.11 1017.48 1016.91 1016.33 1015.81 1015.48 1015.35 1015.18 1014.98 1014.78 1014.59 1014.41 1014.25 1013.97 1013.76 1013.54 1013.37 1013.18 1013.02 1012.89 1012.67 1012.35 1012.20 1012.50 1012.78 1013.07 1013.45 1013.99 1014.73 1015.48 1016.09 1016.98 1017.86 1018.75 1019.78 1020.68 1021.52 1022.61 1023.75 1024.77
Wind_Speed
5 5 6 6 7 7 8 8 8 7 7 6 6 5 3 4 4 4 4 4 4 4 4 3 2 3 2 2 1 1 2 2 3 1 2 3 3 4 2 3 3 5 3
3 4 4 5 5 6 6 7 8 8 9 9 9 7 6 3 4 4 4 4 5 5 4 3 3 2 2 3 2 3 3 2 3 4 2 2 3 3 3 4 2 3 3
1 2 4 4 4 3 4 5 6 6 7 9 9 8 8 7 6 2 3 4 4 4 5 4 4 4 4 2 3 3 2 1 2 3 3 2 2 3 3 2 1 2 3
3 1 1 2 3 3 3 3 3 3 3 6 8 8 6 5 5 4 4 3 4 4 4 5 4 4 5 4 4 4 3 3 2 3 3 3 3 2 3 3 3 0 1
6 4 4 3 2 2 3 4 4 4 3 2 6 8 8 6 4 4 4 4 3 4 4 4 4 5 6 5 3 4 5 3 2 3 2 2 3 4 6 3 2 2 1
6 6 4 3 3 3 3 3 4 4 4 3 2 3 6 5 10 10 6 4 3 4 4 5 4 5 4 6 7 9 7 5 4 3 2 4 5 4 6 5 4 3 3
6 7 5 4 4 4 3 3 4 4 3 4 3 2 2 4 11 11 8 3 3 4 5 4 5 4 5 5 6 5 5 5 5 5 5 4 5 7 7 9 6 4 2
5 7 6 4 5 4 4 4 4 2 2 3 3 4 2 2 9 10 9 2 3 4 3 5 5 6 6 6 6 5 4 2 1 2 3 5 5 7 7 5 6 3 3
7 6 5 4 7 4 6 5 4 3 2 2 3 4 3 4 7 9 8 3 3 3 3 3 5 6 10 12 7 7 4 2 3 5 7 7 9 11 7 5 4 4 3
6 7 6 6 6 6 6 6 4 3 3 3 4 3 5 5 7 7 6 3 3 1 3 4 8 6 11 14 8 7 7 4 5 4 3 6 6 8 9 3 4 5 1
5 6 6 6 6 6 5 4 3 4 3 4 5 4 5 5 5 5 6 1 1 3 2 2 3 10 11 15 12 7 6 9 9 6 4 4 4 4 4 3 3 2 4
6 9 9 8 7 5 6 5 4 4 4 4 4 5 3 4 4 4 5 5 6 1 3 3 3 9 13 15 12 12 15 11 6 5 4 2 3 2 3 3 5 4 4
9 10 10 10 9 8 6 6 5 6 6 6 4 3 4 3 3 6 4 5 7 3 2 6 8 9 11 12 14 14 13 7 7 5 5 3 2 3 5 5 5 4 5
10 11 11 10 10 9 7 6 6 6 7 7 6 5 4 3 2 2 1 1 2 4 5 6 5 5 6 5 7 11 6 6 7 5 4 4 3 4 4 2 2 1 2
10 10 11 9 10 10 9 7 8 9 9 7 8 7 5 4 4 5 1 1 2 3 4 0 0 0 2 2 5 7 6 6 6 6 6 5 5 4 3 3 2 3 2
12 9 8 8 8 8 9 9 14 19 18 20 16 11 5 7 9 9 9 9 8 7 1 1 2 4 4 5 5 6 6 8 6 6 6 6 5 5 5 5 3 3 2
12 11 8 9 8 9 8 8 10 9 17 21 20 19 18 11 13 12 11 11 10 6 2 2 3 4 5 6 6 7 8 7 7 7 7 7 6 6 9 5 5 3 2
11 14 10 9 9 8 9 9 8 9 10 5 10 16 18 19 17 16 13 9 2 3 3 4 3 5 6 7 6 7 7 7 8 8 8 8 7 8 8 7 7 4 4
10 9 9 8 8 9 8 9 9 9 9 8 2 8 5 16 16 16 15 4 5 4 4 5 6 5 6 6 7 7 9 9 9 9 8 8 9 8 7 6 7 7 6
10 14 13 9 9 9 9 9 9 9 9 8 7 7 2 2 4 6 6 4 6 7 5 6 5 7 6 7 7 8 8 9 9 9 9 9 9 8 8 8 7 8 6
8 9 12 9 9 9 8 9 10 9 9 9 9 6 13 6 7 6 8 8 8 8 6 7 6 7 7 7 8 9 9 9 9 9 9 9 10 10 8 8 7 7 7
8 9 8 9 8 9 9 9 9 10 10 10 9 7 20 10 8 8 7 7 6 5 4 6 7 8 10 10 9 9 10 10 10 10 9 9 10 9 9 9 8 8 8
8 10 10 9 9 11 10 9 9 10 10 10 9 9 6 9 9 9 9 7 5 7 7 6 8 9 10 10 10 10 10 10 11 11 11 11 11 10 10 10 10 9 9
9 9 9 9 8 9 9 10 9 12 12 11 10 9 10 10 10 11 10 9 8 9 8 8 10 14 12 10 10 10 10 9 9 12 15 12 11 13 11 11 11 11 9
7 8 8 8 8 9 9 10 10 10 10 10 10 10 10 10 11 11 9 8 9 10 10 9 10 15 18 17 14 15 14 14 13 14 11 13 15 17 13 11 12 11 11
8 8 7 7 7 7 7 7 8 10 10 10 10 11 10 11 11 11 10 9 6 6 6 7 9 16 14 14 17 17 17 17 17 19 13 12 13 13 12 13 17 11 13
Wind_Direction
37 28 24 18 19 17 13 6 7 1 1 354 345 340 350 179 180 190 196 178 184 196 223 239 261 227 176 154 172 272 252 167 124 61 103 94 94 131 130 94 98 76 26
24 27 40 41 30 25 12 357 357 0 0 352 350 349 349 340 182 182 198 190 192 192 203 201 222 245 212 195 168 226 245 241 127 133 128 115 106 127 130 91 61 80 33
51 26 28 22 41 26 1 349 354 357 353 359 2 1 349 344 345 333 213 202 200 192 194 195 198 198 229 212 193 193 218 211 123 132 133 124 106 145 110 130 116 97 57
296 260 335 333 351 348 336 343 345 333 347 0 1 355 346 337 326 318 308 245 217 206 199 195 196 203 210 203 214 190 178 139 137 125 126 136 127 132 154 162 183 146 117
310 292 252 258 281 306 327 326 324 343 330 311 12 8 3 358 4 347 301 279 242 232 221 210 203 218 224 211 175 194 165 157 154 142 133 139 145 162 197 160 156 166 207
305 281 260 247 267 278 292 302 325 323 320 358 31 358 11 4 358 345 335 304 264 231 230 211 212 210 221 217 191 182 181 174 194 153 155 183 181 176 195 192 175 159 217
297 291 266 244 246 254 256 307 310 310 326 329 336 7 5 342 359 347 342 307 273 238 229 216 198 189 192 192 209 184 185 200 205 169 180 192 188 186 187 193 195 191 141
291 291 298 275 264 274 284 268 275 269 289 302 309 317 318 329 352 355 346 300 244 238 225 217 209 191 189 182 177 180 193 186 232 116 159 181 175 166 185 176 184 108 76
313 306 291 268 267 234 245 257 263 267 279 278 282 306 313 298 331 353 352 322 270 229 216 228 213 196 195 187 179 165 152 104 106 118 119 130 143 150 154 138 153 148 195
320 315 300 286 258 245 235 238 236 228 256 275 291 276 280 284 318 340 3 332 311 257 209 221 234 211 199 186 177 162 160 153 122 79 68 92 93 110 91 108 149 154 180
322 317 318 312 282 258 242 217 209 234 258 281 283 284 276 267 275 319 348 56 289 282 230 224 215 229 209 196 178 172 172 137 145 116 104 103 92 77 57 52 59 126 200
335 331 324 314 304 287 243 233 218 213 232 255 267 286 272 272 267 292 338 350 337 274 258 223 218 235 218 204 184 174 157 140 132 140 136 152 135 133 103 73 65 50 46
332 319 312 309 303 286 272 241 227 214 220 235 228 246 266 263 263 285 302 18 14 5 278 255 230 235 237 215 190 175 156 152 150 167 165 153 153 134 115 101 76 67 64
310 305 305 302 300 289 273 250 236 217 216 221 221 223 234 242 250 268 268 27 27 1 348 312 232 215 224 202 174 172 160 162 165 164 159 114 108 134 153 125 133 166 83
292 294 295 292 290 286 271 255 239 236 223 213 216 206 197 219 234 197 230 293 269 284 320 359 17 174 188 173 176 166 159 157 164 152 148 140 145 158 157 156 144 146 121
286 285 284 291 295 292 293 290 268 259 246 243 229 202 213 204 232 253 266 277 287 296 20 248 248 219 205 196 185 174 169 170 172 160 146 152 163 166 158 182 157 181 139
276 280 278 273 275 278 275 273 280 277 272 249 244 242 239 223 235 249 261 273 276 281 179 232 219 218 218 203 197 185 182 183 169 168 155 156 162 172 167 185 168 151 108
272 273 271 269 265 267 270 271 279 275 269 261 264 240 243 243 241 243 251 271 322 284 190 206 222 212 225 219 202 193 181 173 178 168 165 159 168 169 176 176 180 164 133
272 273 270 269 267 265 265 267 265 262 267 270 288 272 265 235 235 237 238 204 215 214 216 206 222 217 213 218 215 198 187 181 182 173 168 168 170 170 178 175 173 158 132
267 264 260 263 263 267 269 264 260 258 259 260 253 246 232 154 221 227 221 199 210 228 209 217 213 217 213 207 219 202 191 186 184 180 174 171 170 173 173 173 168 164 161
263 261 256 261 260 258 252 249 259 261 256 253 252 247 239 220 229 212 215 216 218 220 209 208 213 214 220 211 202 212 196 192 189 182 174 172 170 171 171 170 164 154 150
266 259 255 252 254 253 253 252 252 253 255 256 258 252 254 255 242 227 223 224 219 223 211 207 222 222 228 221 202 200 201 195 186 181 174 169 169 169 165 160 157 158 146
257 254 251 247 246 253 251 249 250 249 254 254 254 253 237 243 249 243 239 233 211 225 230 229 232 229 231 223 207 199 203 197 188 178 172 168 170 169 166 162 161 158 158
289 280 269 257 248 244 242 243 243 245 248 251 250 248 245 243 241 241 242 239 232 233 231 230 232 234 233 223 209 200 199 199 182 180 171 169 173 166 163 161 162 162 153
315 313 310 301 268 253 252 241 241 242 242 243 243 244 247 245 245 244 242 240 239 236 236 230 233 235 232 225 209 198 192 184 179 175 173 171 173 169 167 160 156 153 152
325 323 318 314 312 310 302 280 250 240 238 236 234 236 235 238 242 242 238 232 232 234 246 255 251 233 219 221 208 195 187 183 179 172 170 171 167 167 162 158 155 151 152